Time,TemperatureF,DewpointF,PressureIn,WindDirection,WindDirectionDegrees,WindSpeedMPH,WindSpeedGustMPH,Humidity,HourlyPrecipIn,Conditions,Clouds,dailyrainin,SoftwareType,DateUTC
2013-01-11 00:04:00,29.1,24.0,29.95,WSW,249,2.0,-999.0,81,-99.99,,,0.00,weatherlink.com 1.10,2013-01-11 07:04:00,
2013-01-11 00:19:00,29.0,23.0,29.95,SSE,148,2.0,-999.0,79,-99.99,,,0.00,weatherlink.com 1.10,2013-01-11 07:19:00,
2013-01-11 00:34:00,29.4,23.0,29.93,WSW,255,2.0,-999.0,76,-99.99,,,0.00,weatherlink.com 1.10,2013-01-11 07:34:00,
2013-01-11 00:49:00,29.8,21.0,29.92,East,86,1.0,-999.0,71,-99.99,,,0.00,weatherlink.com 1.10,2013-01-11 07:49:00,
2013-01-11 01:04:00,29.4,22.0,29.91,SSW,193,5.0,-999.0,73,-99.99,,,0.00,weatherlink.com 1.10,2013-01-11 08:04:00,
2013-01-11 01:19:00,28.7,22.0,29.90,SSW,206,13.0,-999.0,77,-99.99,,,0.00,weatherlink.com 1.10,2013-01-11 08:19:00,
2013-01-11 01:34:00,29.7,21.0,29.89,South,177,16.0,-999.0,70,-99.99,,,0.00,weatherlink.com 1.10,2013-01-11 08:34:00,
2013-01-11 01:50:00,29.3,22.0,29.88,SSW,199,9.0,-999.0,73,-99.99,,,0.00,weatherlink.com 1.10,2013-01-11 08:50:00,
2013-01-11 02:05:00,29.5,21.0,29.86,SSE,151,5.0,-999.0,71,-99.99,,,0.00,weatherlink.com 1.10,2013-01-11 09:05:00,
2013-01-11 02:20:00,29.4,21.0,29.84,South,180,17.0,-999.0,72,-99.99,,,0.00,weatherlink.com 1.10,2013-01-11 09:20:00,
2013-01-11 02:35:00,27.9,23.0,29.86,West,261,4.0,-999.0,82,-99.99,,,0.00,weatherlink.com 1.10,2013-01-11 09:35:00,
2013-01-11 02:50:00,26.6,25.0,29.83,SW,230,10.0,-999.0,92,-99.99,,,0.00,weatherlink.com 1.10,2013-01-11 09:50:00,
2013-01-11 03:05:00,26.4,25.0,29.83,South,190,11.0,-999.0,95,-99.99,,,0.00,weatherlink.com 1.10,2013-01-11 10:05:00,
2013-01-11 03:20:00,26.4,25.0,29.81,West,272,3.0,-999.0,95,-99.99,,,0.00,weatherlink.com 1.10,2013-01-11 10:20:00,
2013-01-11 03:35:00,26.4,25.0,29.81,SSW,196,1.0,-999.0,96,-99.99,,,0.00,weatherlink.com 1.10,2013-01-11 10:35:00,
2013-01-11 03:50:00,26.4,25.0,29.80,South,183,18.0,-999.0,96,-99.99,,,0.00,weatherlink.com 1.10,2013-01-11 10:50:00,
2013-01-11 04:05:00,26.1,25.0,29.80,SSW,208,8.0,-999.0,96,-99.99,,,0.00,weatherlink.com 1.10,2013-01-11 11:05:00,
2013-01-11 04:20:00,24.1,23.0,29.82,SW,215,4.0,-999.0,94,-99.99,,,0.00,weatherlink.com 1.10,2013-01-11 11:20:00,
2013-01-11 04:35:00,23.6,22.0,29.86,WSW,242,13.0,-999.0,92,-99.99,,,0.00,weatherlink.com 1.10,2013-01-11 11:35:00,
2013-01-11 04:50:00,22.7,21.0,29.85,SE,139,2.0,-999.0,92,-99.99,,,0.00,weatherlink.com 1.10,2013-01-11 11:50:00,
2013-01-11 05:05:00,21.8,20.0,29.92,ESE,115,0.0,-999.0,93,-99.99,,,0.00,weatherlink.com 1.10,2013-01-11 12:05:00,
2013-01-11 05:20:00,21.0,19.0,29.95,SSW,194,0.0,-999.0,92,-99.99,,,0.00,weatherlink.com 1.10,2013-01-11 12:20:00,
2013-01-11 05:35:00,20.3,17.0,29.96,South,180,6.0,-999.0,85,-99.99,,,0.00,weatherlink.com 1.10,2013-01-11 12:35:00,
2013-01-11 05:50:00,19.5,14.0,29.98,South,176,7.0,-999.0,78,-99.99,,,0.00,weatherlink.com 1.10,2013-01-11 12:50:00,
2013-01-11 06:05:00,19.4,13.0,30.00,North,5,0.0,-999.0,75,-99.99,,,0.00,weatherlink.com 1.10,2013-01-11 13:05:00,
2013-01-11 06:20:00,18.9,12.0,30.00,South,173,0.0,-999.0,73,-99.99,,,0.00,weatherlink.com 1.10,2013-01-11 13:20:00,
2013-01-11 06:35:00,18.4,12.0,30.02,South,191,9.0,-999.0,75,-99.99,,,0.00,weatherlink.com 1.10,2013-01-11 13:35:00,
2013-01-11 06:50:00,17.7,13.0,30.03,SSE,166,10.0,-999.0,82,-99.99,,,0.00,weatherlink.com 1.10,2013-01-11 13:50:00,
2013-01-11 07:05:00,16.7,14.0,30.03,WSW,247,12.0,-999.0,88,-99.99,,,0.00,weatherlink.com 1.10,2013-01-11 14:05:00,
2013-01-11 07:20:00,16.2,14.0,30.06,SW,215,5.0,-999.0,89,-99.99,,,0.00,weatherlink.com 1.10,2013-01-11 14:20:00,
2013-01-11 07:35:00,15.9,14.0,30.07,West,272,4.0,-999.0,90,-99.99,,,0.00,weatherlink.com 1.10,2013-01-11 14:35:00,
2013-01-11 07:50:00,15.6,13.0,30.08,WSW,255,3.0,-999.0,89,-99.99,,,0.00,weatherlink.com 1.10,2013-01-11 14:50:00,
2013-01-11 08:05:00,15.6,13.0,30.09,SSW,203,8.0,-999.0,88,-99.99,,,0.00,weatherlink.com 1.10,2013-01-11 15:05:00,
2013-01-11 08:20:00,14.9,12.0,30.11,South,189,8.0,-999.0,88,-99.99,,,0.00,weatherlink.com 1.10,2013-01-11 15:20:00,
2013-01-11 08:35:00,14.8,11.0,30.13,SSW,193,5.0,-999.0,86,-99.99,,,0.00,weatherlink.com 1.10,2013-01-11 15:35:00,
2013-01-11 08:50:00,15.4,12.0,30.14,WSW,244,0.0,-999.0,85,-99.99,,,0.00,weatherlink.com 1.10,2013-01-11 15:50:00,
2013-01-11 09:05:00,15.7,11.0,30.13,ESE,114,0.0,-999.0,81,-99.99,,,0.00,weatherlink.com 1.10,2013-01-11 16:05:00,
2013-01-11 09:20:00,15.7,11.0,30.13,ESE,105,1.0,-999.0,80,-99.99,,,0.00,weatherlink.com 1.10,2013-01-11 16:20:00,
2013-01-11 09:35:00,15.2,10.0,30.16,SSE,162,3.0,-999.0,81,-99.99,,,0.00,weatherlink.com 1.10,2013-01-11 16:35:00,
2013-01-11 09:50:00,14.3,11.0,30.16,SSW,200,4.0,-999.0,86,-99.99,,,0.00,weatherlink.com 1.10,2013-01-11 16:50:00,
2013-01-11 10:05:00,14.0,11.0,30.17,South,184,2.0,-999.0,88,-99.99,,,0.00,weatherlink.com 1.10,2013-01-11 17:05:00,
2013-01-11 10:20:00,14.3,11.0,30.17,SSW,206,5.0,-999.0,87,-99.99,,,0.00,weatherlink.com 1.10,2013-01-11 17:20:00,
2013-01-11 10:35:00,16.1,12.0,30.16,ESE,103,3.0,-999.0,82,-99.99,,,0.00,weatherlink.com 1.10,2013-01-11 17:35:00,
2013-01-11 10:50:00,16.9,11.0,30.14,ESE,108,1.0,-999.0,77,-99.99,,,0.00,weatherlink.com 1.10,2013-01-11 17:50:00,
2013-01-11 11:05:00,16.4,9.0,30.14,South,187,8.0,-999.0,72,-99.99,,,0.00,weatherlink.com 1.10,2013-01-11 18:05:00,
2013-01-11 11:20:00,14.9,5.0,30.16,SSW,204,6.0,-999.0,64,-99.99,,,0.00,weatherlink.com 1.10,2013-01-11 18:20:00,
2013-01-11 11:35:00,16.4,3.0,30.16,WSW,256,2.0,-999.0,56,-99.99,,,0.00,weatherlink.com 1.10,2013-01-11 18:35:00,
2013-01-11 11:50:00,14.8,3.0,30.16,SW,223,4.0,-999.0,61,-99.99,,,0.00,weatherlink.com 1.10,2013-01-11 18:50:00,
2013-01-11 12:05:00,13.6,3.0,30.16,South,182,2.0,-999.0,63,-99.99,,,0.00,weatherlink.com 1.10,2013-01-11 19:05:00,
2013-01-11 12:20:00,14.4,4.0,30.16,SW,224,3.0,-999.0,64,-99.99,,,0.00,weatherlink.com 1.10,2013-01-11 19:20:00,
2013-01-11 12:35:00,16.5,3.0,30.13,South,183,7.0,-999.0,55,-99.99,,,0.00,weatherlink.com 1.10,2013-01-11 19:35:00,
2013-01-11 12:50:00,15.6,3.0,30.12,SSW,199,7.0,-999.0,58,-99.99,,,0.00,weatherlink.com 1.10,2013-01-11 19:50:00,
2013-01-11 13:05:00,17.8,4.0,30.12,South,186,6.0,-999.0,54,-99.99,,,0.00,weatherlink.com 1.10,2013-01-11 20:05:00,
2013-01-11 13:19:00,17.2,0.0,30.12,SSW,201,7.0,-999.0,46,-99.99,,,0.00,weatherlink.com 1.10,2013-01-11 20:19:00,
2013-01-11 13:34:00,17.0,-1.0,30.13,SSE,148,7.0,-999.0,46,-99.99,,,0.00,weatherlink.com 1.10,2013-01-11 20:34:00,
2013-01-11 13:49:00,15.9,0.0,30.15,South,176,3.0,-999.0,50,-99.99,,,0.00,weatherlink.com 1.10,2013-01-11 20:49:00,
2013-01-11 14:04:00,18.1,1.0,30.16,SSW,203,2.0,-999.0,47,-99.99,,,0.00,weatherlink.com 1.10,2013-01-11 21:04:00,
2013-01-11 14:19:00,16.2,0.0,30.19,South,175,12.0,-999.0,49,-99.99,,,0.00,weatherlink.com 1.10,2013-01-11 21:19:00,
2013-01-11 14:34:00,15.4,-1.0,30.19,South,190,0.0,-999.0,49,-99.99,,,0.00,weatherlink.com 1.10,2013-01-11 21:34:00,
2013-01-11 14:49:00,14.8,1.0,30.20,SSW,206,5.0,-999.0,55,-99.99,,,0.00,weatherlink.com 1.10,2013-01-11 21:49:00,
2013-01-11 15:04:00,14.3,2.0,30.22,South,191,11.0,-999.0,58,-99.99,,,0.00,weatherlink.com 1.10,2013-01-11 22:04:00,
2013-01-11 15:19:00,13.3,2.0,30.23,South,190,6.0,-999.0,62,-99.99,,,0.00,weatherlink.com 1.10,2013-01-11 22:19:00,
2013-01-11 15:34:00,13.3,5.0,30.25,SW,215,3.0,-999.0,68,-99.99,,,0.00,weatherlink.com 1.10,2013-01-11 22:34:00,
2013-01-11 15:49:00,12.8,5.0,30.26,South,182,2.0,-999.0,71,-99.99,,,0.00,weatherlink.com 1.10,2013-01-11 22:49:00,
2013-01-11 16:04:00,12.9,5.0,30.28,SW,228,0.0,-999.0,70,-99.99,,,0.00,weatherlink.com 1.10,2013-01-11 23:04:00,
2013-01-11 16:19:00,12.9,4.0,30.28,WSW,252,2.0,-999.0,67,-99.99,,,0.00,weatherlink.com 1.10,2013-01-11 23:19:00,
2013-01-11 16:34:00,12.6,2.0,30.29,SW,215,0.0,-999.0,62,-99.99,,,0.00,weatherlink.com 1.10,2013-01-11 23:34:00,
2013-01-11 16:49:00,12.1,0.0,30.32,SW,223,0.0,-999.0,58,-99.99,,,0.00,weatherlink.com 1.10,2013-01-11 23:49:00,
2013-01-11 17:04:00,11.6,-2.0,30.34,SSW,210,1.0,-999.0,55,-99.99,,,0.00,weatherlink.com 1.10,2013-01-12 00:04:00,
2013-01-11 17:19:00,10.4,-3.0,30.37,SSW,211,1.0,-999.0,54,-99.99,,,0.00,weatherlink.com 1.10,2013-01-12 00:19:00,
2013-01-11 17:34:00,9.9,-4.0,30.38,SSW,211,0.0,-999.0,53,-99.99,,,0.00,weatherlink.com 1.10,2013-01-12 00:34:00,
2013-01-11 17:49:00,9.9,-5.0,30.38,SSW,211,1.0,-999.0,50,-99.99,,,0.00,weatherlink.com 1.10,2013-01-12 00:49:00,
2013-01-11 18:04:00,9.3,-5.0,30.41,SSW,213,1.0,-999.0,52,-99.99,,,0.00,weatherlink.com 1.10,2013-01-12 01:04:00,
2013-01-11 18:19:00,8.4,-4.0,30.43,SSW,213,0.0,-999.0,57,-99.99,,,0.00,weatherlink.com 1.10,2013-01-12 01:19:00,
2013-01-11 18:49:00,6.9,-3.0,30.46,SSW,213,0.0,-999.0,65,-99.99,,,0.00,weatherlink.com 1.10,2013-01-12 01:49:00,
2013-01-11 19:04:00,6.7,-3.0,30.48,SSW,213,0.0,-999.0,65,-99.99,,,0.00,weatherlink.com 1.10,2013-01-12 02:04:00,
2013-01-11 19:19:00,5.8,-2.0,30.48,SSW,213,0.0,-999.0,69,-99.99,,,0.00,weatherlink.com 1.10,2013-01-12 02:19:00,
2013-01-11 19:34:00,5.6,-2.0,30.49,SSW,213,0.0,-999.0,70,-99.99,,,0.00,weatherlink.com 1.10,2013-01-12 02:34:00,
2013-01-11 19:49:00,5.0,-3.0,30.51,SSW,213,0.0,-999.0,71,-99.99,,,0.00,weatherlink.com 1.10,2013-01-12 02:49:00,
2013-01-11 20:04:00,4.7,-3.0,30.52,SSW,213,0.0,-999.0,72,-99.99,,,0.00,weatherlink.com 1.10,2013-01-12 03:04:00,
2013-01-11 20:19:00,4.3,-2.0,30.54,SSW,213,0.0,-999.0,74,-99.99,,,0.00,weatherlink.com 1.10,2013-01-12 03:19:00,
2013-01-11 20:34:00,5.2,-2.0,30.52,SSW,213,0.0,-999.0,73,-99.99,,,0.00,weatherlink.com 1.10,2013-01-12 03:34:00,
2013-01-11 20:49:00,4.1,-3.0,30.53,SSW,213,0.0,-999.0,74,-99.99,,,0.00,weatherlink.com 1.10,2013-01-12 03:49:00,
2013-01-11 21:04:00,3.4,-3.0,30.54,SSW,213,0.0,-999.0,75,-99.99,,,0.00,weatherlink.com 1.10,2013-01-12 04:04:00,
2013-01-11 21:19:00,2.8,-3.0,30.56,SSW,213,0.0,-999.0,77,-99.99,,,0.00,weatherlink.com 1.10,2013-01-12 04:19:00,
2013-01-11 21:34:00,2.4,-4.0,30.56,SSW,213,0.0,-999.0,76,-99.99,,,0.00,weatherlink.com 1.10,2013-01-12 04:34:00,
2013-01-11 21:49:00,2.2,-3.0,30.56,SSW,213,0.0,-999.0,77,-99.99,,,0.00,weatherlink.com 1.10,2013-01-12 04:49:00,
2013-01-11 22:04:00,2.4,-4.0,30.55,SSW,213,0.0,-999.0,76,-99.99,,,0.00,weatherlink.com 1.10,2013-01-12 05:04:00,
2013-01-11 22:19:00,2.2,-4.0,30.55,SSW,213,0.0,-999.0,76,-99.99,,,0.00,weatherlink.com 1.10,2013-01-12 05:19:00,
2013-01-11 22:34:00,2.0,-4.0,30.55,SSW,213,0.0,-999.0,76,-99.99,,,0.00,weatherlink.com 1.10,2013-01-12 05:34:00,
2013-01-11 22:49:00,2.0,-4.0,30.55,SSW,213,0.0,-999.0,75,-99.99,,,0.00,weatherlink.com 1.10,2013-01-12 05:49:00,
2013-01-11 23:04:00,2.0,-4.0,30.57,SSW,213,0.0,-999.0,75,-99.99,,,0.00,weatherlink.com 1.10,2013-01-12 06:04:00,
2013-01-11 23:19:00,2.0,-4.0,30.57,SSW,213,0.0,-999.0,75,-99.99,,,0.00,weatherlink.com 1.10,2013-01-12 06:19:00,
2013-01-11 23:34:00,2.0,-5.0,30.57,SSW,213,0.0,-999.0,74,-99.99,,,0.00,weatherlink.com 1.10,2013-01-12 06:34:00,
2013-01-11 23:49:00,1.7,-5.0,30.57,SSW,213,0.0,-999.0,74,-99.99,,,0.00,weatherlink.com 1.10,2013-01-12 06:49:00,